Simultaneous Nadir Overpasses (SNOs) Predictions

Prediction of SNOs between AQUA and METOP-C Satellite Orbit:

Table of predicted SNOs for the next 14.0 days since TLE Epoch: 8/29/2025
Index Date (AQUA) Time (AQUA) Lat,Lon (AQUA) SZA (AQUA ) Date (METOP-C) Time (METOP-C) Lat,Lon (METOP-C) SZA (METOP-C ) Distance(km) Time Diff (sec)
1 09/01/2025 01:48:00 76.87, 156.99 68.59 09/01/2025 01:47:04 76.90, 156.97 68.62 3.45 56
2 09/01/2025 02:37:18 -76.92, -35.53 111.35 09/01/2025 02:37:45 -76.92, -35.60 111.35 1.91 27
3 09/03/2025 13:46:34 -76.88, 157.37 110.48 09/03/2025 13:45:21 -76.89, 157.39 110.47 1.47 73
4 09/03/2025 14:35:54 76.95, -35.21 69.60 09/03/2025 14:36:00 76.94, -35.10 69.59 2.82 6
5 09/06/2025 02:34:26 -76.91, -34.64 109.51 09/06/2025 02:34:17 -76.93, -34.71 109.49 2.34 9
6 09/06/2025 03:23:46 76.98, 132.76 70.58 09/06/2025 03:24:56 76.97, 132.81 70.57 1.64 70
7 09/08/2025 14:33:00 76.95, -34.35 71.47 09/08/2025 14:32:32 76.93, -34.25 71.46 3.20 28
8 09/08/2025 15:22:17 -76.95, 133.33 108.52 09/08/2025 15:23:13 -76.96, 133.18 108.51 4.12 56
9 09/11/2025 02:31:30 -76.91, -33.77 107.62 09/11/2025 02:30:49 -76.91, -33.91 107.62 3.67 41



Historial Predications of SNOs between AQUA and METOP-C
